Location: *
(34.8620°S, 39.3380°E)
Time: 10:42:25
(UTC+00:00)

SL-16 R/B - Pass Details

Date: 27 July 2021
Orbit: 840 x 849 km, 71.0° (Epoch: 22 September)

Event Time Altitude Azimuth Distance (km) Brightness Sun altitude
Exits shadow 02:44:41 14° 202° (SSW) 2,240 4.1 -19.7°
Drops below altitude 10° 02:45:50 10° 192° (SSW) 2,503 4.4 -19.5°
Sets 02:49:04 0° 174° (S) 3,446 5.3 -18.8°
